Wind_Speed
30 30 31 33 35 38 40 42 43 44 46 48 38 37 48 44 42 42 42 42 46 42
30 30 32 34 36 39 40 41 41 44 45 46 45 39 42 46 42 42 44 45 45 45
31 31 32 34 35 36 39 39 38 40 43 44 46 42 40 45 45 42 43 47 45 45
27 29 31 31 31 32 35 35 37 39 42 46 47 47 42 47 50 45 47 48 50 46
24 25 26 26 25 23 27 32 34 35 35 36 42 46 41 50 48 49 49 49 51 49
21 21 22 21 21 21 20 22 27 35 34 29 28 40 46 47 48 46 44 46 50 49
22 20 19 17 17 16 16 16 21 26 30 29 27 30 41 45 46 44 44 45 47 44
26 24 19 18 16 15 15 17 13 11 11 23 30 35 39 39 41 40 37 38 36 40
29 30 29 28 26 22 23 28 20 15 19 8 20 27 28 30 34 31 31 35 38 39
30 32 36 36 36 37 38 38 39 29 32 28 14 21 16 25 31 24 30 33 36 36
32 35 38 40 41 42 44 46 47 44 43 41 37 27 22 26 24 26 30 29 30 32
32 37 39 42 44 45 47 49 50 50 51 50 45 36 31 26 25 25 25 19 15 15
29 32 36 38 41 44 46 49 50 52 51 51 51 45 39 36 30 35 31 26 24 17
31 33 34 34 36 37 40 42 46 48 49 49 48 48 45 40 39 37 36 36 33 30
Wind_Direction
307 304 300 298 295 288 284 277 272 267 260 256 247 242 249 246 242 246 244 239 237 234
309 307 304 300 297 292 287 280 275 272 268 259 249 243 243 243 237 241 245 242 241 238
314 310 307 303 301 297 291 283 275 273 272 263 253 237 237 236 237 235 243 243 240 240
316 312 309 306 306 299 293 285 279 275 274 268 257 232 234 239 238 238 238 237 237 234
324 321 316 310 306 303 299 284 277 270 280 273 256 232 231 236 233 234 233 232 232 233
336 331 329 323 318 316 315 305 284 272 271 277 261 238 228 236 235 235 232 228 231 227
2 354 347 344 340 335 332 326 302 281 263 262 255 240 236 237 231 231 229 229 226 229
24 21 18 20 23 25 29 26 352 269 267 251 252 249 245 229 228 228 226 221 220 228
38 38 41 44 43 44 48 51 40 56 57 64 215 237 247 221 224 221 220 216 219 224
46 49 50 52 54 56 55 60 60 51 56 69 69 198 201 229 212 192 197 204 201 212
53 54 58 58 57 57 58 60 62 61 57 58 61 67 133 160 168 178 171 170 176 182
51 58 58 59 61 62 62 63 63 64 63 61 60 59 68 68 100 120 138 137 147 162
48 52 59 60 60 61 61 63 64 64 64 66 65 65 69 76 76 78 76 83 78 79
55 57 57 58 60 59 61 61 61 62 63 62 62 63 65 69 74 76 74 76 73 67
Height
1427 1422 1419 1416 1413 1410 1407 1406 1405 1405 1407 1409 1414 1413 1417 1421 1424 1428 1432 1436 1440 1444
1420 1415 1411 1408 1404 1399 1397 1394 1394 1393 1392 1395 1400 1403 1407 1410 1415 1417 1421 1426 1431 1436
1413 1408 1404 1400 1395 1390 1386 1383 1382 1381 1380 1381 1384 1392 1396 1398 1402 1406 1410 1417 1422 1426
1409 1404 1399 1393 1386 1381 1377 1374 1371 1371 1369 1367 1369 1377 1383 1385 1391 1395 1401 1407 1410 1416
1406 1400 1394 1387 1381 1375 1369 1366 1362 1360 1357 1354 1356 1363 1369 1372 1378 1386 1391 1394 1399 1406
1402 1396 1389 1382 1377 1370 1362 1357 1354 1352 1350 1346 1346 1353 1358 1363 1368 1371 1378 1383 1388 1396
1400 1393 1387 1380 1372 1365 1359 1352 1346 1342 1340 1340 1338 1343 1349 1356 1359 1364 1368 1374 1380 1385
1401 1395 1386 1380 1372 1366 1357 1348 1342 1336 1334 1332 1333 1336 1338 1342 1352 1358 1360 1366 1372 1377
1405 1399 1390 1379 1370 1365 1358 1350 1343 1334 1333 1328 1326 1329 1332 1338 1346 1347 1354 1360 1365 1371
1409 1401 1391 1383 1376 1368 1362 1356 1347 1344 1335 1325 1324 1323 1324 1335 1324 1334 1347 1355 1361 1367
1412 1404 1395 1388 1381 1375 1368 1359 1352 1348 1339 1335 1327 1327 1332 1333 1334 1340 1346 1353 1359 1361
1419 1410 1403 1395 1389 1383 1375 1368 1362 1356 1348 1345 1342 1343 1339 1339 1340 1345 1348 1355 1361 1364
1425 1418 1410 1404 1399 1393 1386 1380 1374 1368 1363 1360 1357 1363 1359 1357 1353 1357 1364 1360 1367 1370
1432 1425 1420 1414 1407 1403 1396 1391 1386 1381 1378 1376 1375 1372 1371 1374 1370 1370 1369 1370 1370 1374